Météo par heure à Aliganj

Ce jour, 15 Mai, Samedi

Heure Température Précipitation Vent Pression Humidité
00:00 +33°C° 0 mm 1 m/s 738 mmHg 39%
01:00 +32°C° 0 mm 1 m/s 738 mmHg 39%
02:00 +32°C° 0 mm 1 m/s 737 mmHg 40%
03:00 +32°C° 0 mm 1 m/s 738 mmHg 41%
04:00 +31°C° 0 mm 1 m/s 738 mmHg 42%
05:00 +31°C° 0 mm 1 m/s 739 mmHg 42%
06:00 +32°C° 0 mm 1 m/s 739 mmHg 39%
07:00 +35°C° 0 mm 2 m/s 740 mmHg 35%
08:00 +36°C° 0 mm 2 m/s 740 mmHg 32%
09:00 +38°C° 0 mm 2 m/s 740 mmHg 29%
10:00 +39°C° 0 mm 3 m/s 740 mmHg 25%
11:00 +41°C° 0 mm 2 m/s 740 mmHg 22%
12:00 +42°C° 0 mm 2 m/s 739 mmHg 20%
13:00 +42°C° 0 mm 1 m/s 739 mmHg 19%
14:00 +43°C° 0 mm 1 m/s 738 mmHg 17%
15:00 +43°C° 0 mm 3 m/s 738 mmHg 19%
16:00 +41°C° 0 mm 5 m/s 737 mmHg 21%
17:00 +40°C° 0 mm 7 m/s 737 mmHg 23%
18:00 +40°C° 0 mm 5 m/s 737 mmHg 22%
19:00 +38°C° 0 mm 3 m/s 738 mmHg 20%
20:00 +37°C° 0 mm 1 m/s 738 mmHg 19%
21:00 +38°C° 0 mm 2 m/s 738 mmHg 20%
22:00 +37°C° 0 mm 2 m/s 738 mmHg 21%
23:00 +37°C° 0 mm 2 m/s 739 mmHg 22%

Demain, 16 Mai, Dimanche

Heure Température Précipitation Vent Pression Humidité
00:00 +36°C° 0 mm 2 m/s 738 mmHg 23%
01:00 +36°C° 0 mm 2 m/s 738 mmHg 24%
02:00 +35°C° 0 mm 2 m/s 738 mmHg 25%
03:00 +35°C° 0 mm 2 m/s 738 mmHg 26%
04:00 +34°C° 0 mm 2 m/s 739 mmHg 28%
05:00 +34°C° 0 mm 2 m/s 739 mmHg 29%
06:00 +35°C° 0 mm 2 m/s 739 mmHg 26%
07:00 +37°C° 0 mm 2 m/s 740 mmHg 23%
08:00 +39°C° 0 mm 2 m/s 741 mmHg 21%
09:00 +40°C° 0 mm 2 m/s 740 mmHg 19%
10:00 +42°C° 0 mm 2 m/s 740 mmHg 17%
11:00 +43°C° 0 mm 1 m/s 740 mmHg 14%
12:00 +45°C° 0 mm 2 m/s 739 mmHg 14%
13:00 +46°C° 0 mm 2 m/s 739 mmHg 13%
14:00 +46°C° 0 mm 3 m/s 738 mmHg 12%
15:00 +46°C° 0 mm 3 m/s 737 mmHg 12%
16:00 +46°C° 0 mm 3 m/s 737 mmHg 12%
17:00 +46°C° 0 mm 3 m/s 737 mmHg 12%
18:00 +45°C° 0 mm 2 m/s 737 mmHg 12%
19:00 +43°C° 0 mm 2 m/s 737 mmHg 13%
20:00 +41°C° 0 mm 2 m/s 738 mmHg 14%
21:00 +41°C° 0 mm 2 m/s 738 mmHg 14%
22:00 +41°C° 0 mm 2 m/s 738 mmHg 14%
23:00 +40°C° 0 mm 2 m/s 738 mmHg 14%

Après-demain, 17 Mai, Lundi

Heure Température Précipitation Vent Pression Humidité
00:00 +39°C° 0 mm 2 m/s 738 mmHg 15%
01:00 +39°C° 0 mm 2 m/s 738 mmHg 15%
02:00 +38°C° 0 mm 2 m/s 737 mmHg 15%
03:00 +38°C° 0 mm 2 m/s 738 mmHg 16%
04:00 +37°C° 0 mm 2 m/s 738 mmHg 16%
05:00 +36°C° 0 mm 2 m/s 738 mmHg 17%
06:00 +38°C° 0 mm 2 m/s 738 mmHg 15%
07:00 +39°C° 0 mm 2 m/s 739 mmHg 14%
08:00 +42°C° 0 mm 3 m/s 740 mmHg 13%
09:00 +42°C° 0 mm 3 m/s 740 mmHg 13%
10:00 +42°C° 0 mm 4 m/s 740 mmHg 13%
11:00 +43°C° 0 mm 5 m/s 740 mmHg 13%
12:00 +43°C° 0 mm 5 m/s 739 mmHg 13%
13:00 +43°C° 0 mm 4 m/s 739 mmHg 14%
14:00 +43°C° 0 mm 4 m/s 738 mmHg 15%
15:00 +42°C° 0 mm 4 m/s 738 mmHg 15%
16:00 +42°C° 0 mm 5 m/s 738 mmHg 16%
17:00 +42°C° 0 mm 5 m/s 737 mmHg 17%
18:00 +41°C° 0 mm 4 m/s 738 mmHg 17%
19:00 +39°C° 0 mm 3 m/s 738 mmHg 18%
20:00 +39°C° 0 mm 2 m/s 739 mmHg 19%
21:00 +38°C° 0 mm 2 m/s 739 mmHg 20%
22:00 +38°C° 0 mm 3 m/s 739 mmHg 20%
23:00 +38°C° 0 mm 3 m/s 739 mmHg 21%

18 Mai, Mardi

Heure Température Précipitation Vent Pression Humidité
00:00 +38°C° 0 mm 3 m/s 738 mmHg 21%
01:00 +38°C° 0 mm 3 m/s 738 mmHg 20%
02:00 +38°C° 0 mm 3 m/s 737 mmHg 20%
03:00 +37°C° 0 mm 2 m/s 737 mmHg 20%
04:00 +37°C° 0 mm 2 m/s 738 mmHg 21%
05:00 +37°C° 0 mm 2 m/s 738 mmHg 21%
06:00 +37°C° 0 mm 3 m/s 738 mmHg 21%
07:00 +37°C° 0 mm 3 m/s 739 mmHg 20%
08:00 +37°C° 0 mm 4 m/s 740 mmHg 20%
09:00 +37°C° 0 mm 5 m/s 740 mmHg 22%
10:00 +37°C° 0 mm 5 m/s 740 mmHg 25%
11:00 +36°C° 0 mm 5 m/s 740 mmHg 27%
12:00 +37°C° 0 mm 4 m/s 740 mmHg 25%
13:00 +37°C° 0 mm 3 m/s 739 mmHg 23%
14:00 +38°C° 0 mm 2 m/s 739 mmHg 21%
15:00 +38°C° 0 mm 2 m/s 739 mmHg 21%
16:00 +38°C° 0 mm 2 m/s 738 mmHg 21%
17:00 +38°C° 0 mm 2 m/s 738 mmHg 20%
18:00 +37°C° 0 mm 2 m/s 738 mmHg 22%
19:00 +36°C° 0 mm 3 m/s 739 mmHg 24%
20:00 +34°C° 0 mm 3 m/s 739 mmHg 26%
21:00 +34°C° 0 mm 3 m/s 739 mmHg 26%
22:00 +34°C° 0 mm 3 m/s 739 mmHg 26%
23:00 +34°C° 0 mm 2 m/s 738 mmHg 26%

19 Mai, Mercredi

Heure Température Précipitation Vent Pression Humidité
00:00 +32°C° 0 mm 2 m/s 738 mmHg 27%
01:00 +32°C° 0 mm 2 m/s 738 mmHg 27%
02:00 +32°C° 0 mm 2 m/s 737 mmHg 28%
03:00 +33°C° 0 mm 3 m/s 737 mmHg 28%
04:00 +33°C° 0 mm 3 m/s 738 mmHg 29%
05:00 +33°C° 0 mm 3 m/s 738 mmHg 29%
06:00 +33°C° 0.1 mm 4 m/s 738 mmHg 36%
07:00 +32°C° 0.1 mm 4 m/s 739 mmHg 44%
08:00 +32°C° 0.1 mm 5 m/s 740 mmHg 51%
09:00 +33°C° 0.1 mm 5 m/s 740 mmHg 48%
10:00 +34°C° 0.1 mm 5 m/s 740 mmHg 46%
11:00 +34°C° 0.1 mm 5 m/s 740 mmHg 43%
12:00 +36°C° 0.1 mm 5 m/s 739 mmHg 39%
13:00 +37°C° 0.1 mm 5 m/s 738 mmHg 34%
14:00 +40°C° 0.1 mm 5 m/s 738 mmHg 30%
15:00 +39°C° 0 mm 5 m/s 738 mmHg 30%
16:00 +39°C° 0 mm 5 m/s 737 mmHg 30%
17:00 +37°C° 0 mm 5 m/s 737 mmHg 29%
18:00 +36°C° 0.2 mm 4 m/s 737 mmHg 33%
19:00 +35°C° 0.2 mm 3 m/s 737 mmHg 36%
20:00 +32°C° 0.2 mm 2 m/s 737 mmHg 40%
21:00 +33°C° 0.4 mm 3 m/s 737 mmHg 42%
22:00 +31°C° 0.4 mm 3 m/s 737 mmHg 44%
23:00 +31°C° 0.4 mm 3 m/s 737 mmHg 46%

20 Mai, Jeudi

Heure Température Précipitation Vent Pression Humidité
00:00 +30°C° 0.1 mm 3 m/s 737 mmHg 46%
01:00 +30°C° 0.1 mm 2 m/s 736 mmHg 47%
02:00 +30°C° 0.1 mm 2 m/s 736 mmHg 47%
03:00 +30°C° 0 mm 2 m/s 736 mmHg 47%
04:00 +30°C° 0 mm 2 m/s 736 mmHg 48%
05:00 +30°C° 0 mm 2 m/s 736 mmHg 48%
06:00 +32°C° 0.1 mm 2 m/s 737 mmHg 44%
07:00 +35°C° 0.1 mm 3 m/s 737 mmHg 39%
08:00 +36°C° 0.1 mm 3 m/s 738 mmHg 35%
09:00 +38°C° 0 mm 4 m/s 738 mmHg 32%
10:00 +41°C° 0 mm 5 m/s 737 mmHg 29%
11:00 +44°C° 0 mm 6 m/s 737 mmHg 26%
12:00 +45°C° 0 mm 6 m/s 737 mmHg 25%
13:00 +45°C° 0 mm 7 m/s 736 mmHg 24%
14:00 +46°C° 0 mm 7 m/s 735 mmHg 22%
15:00 +45°C° 0 mm 7 m/s 735 mmHg 22%
16:00 +45°C° 0 mm 7 m/s 735 mmHg 21%
17:00 +45°C° 0 mm 8 m/s 734 mmHg 21%
18:00 +43°C° 0 mm 8 m/s 735 mmHg 26%
19:00 +40°C° 0 mm 8 m/s 736 mmHg 31%
20:00 +38°C° 0 mm 8 m/s 736 mmHg 36%
21:00 +35°C° 0 mm 7 m/s 736 mmHg 42%
22:00 +34°C° 0 mm 7 m/s 737 mmHg 47%
23:00 +32°C° 0 mm 6 m/s 737 mmHg 52%
Voir plus

Nous avons besoin de votre consentement

Meteoprog et ses fournisseurs de services peuvent stocker et accéder à des données personnelles telles que des cookies, des identifiants d'appareils ou d'autres technologies similaires sur votre appareil et traiter ces données pour personnaliser le contenu et les publicités, ainsi que pour fournir des fonctionnalités de médias sociaux et analyser le trafic.

  • Stocker et/ou accéder à des informations sur votre appareil

    Des cookies, des identifiants d'appareils ou d'autres informations peuvent être stockés ou accessibles sur votre appareil aux fins indiquées ci-dessus.

  • Annonces et contenus personnalisés, mesure des annonces et des contenus, connaissance de l'audience et développement de produits

    Les annonces et le contenu peuvent être personnalisés en fonction d'un profil. D'autres données peuvent être ajoutées pour mieux personnaliser les annonces et le contenu. Les performances des publicités et du contenu peuvent être mesurées. Il est possible d'obtenir des informations sur le public qui a vu les publicités et le contenu. Ces données peuvent être utilisées pour développer ou améliorer l'expérience de l'utilisateur, les systèmes et les logiciels.

En cliquant sur "J'accepte", vous autorisez l'utilisation de cookies, des identifiants d'appareils, des balises web ou d'autres technologies similaires. Vos paramètres peuvent être modifiés dans le navigateur de votre appareil.

Dans certains cas, des intérêts légitimes peuvent être invoqués plutôt qu'un consentement. Vous pouvez en savoir plus à ce sujet dans notre Politique de confidentialité et de cookies.